iso_date,epoch_date,Year,Hour,Min,DOY,POS_DOY,Lat,Lon,BP,Ts,Ta,has_bp,has_ts,has_ta,BuoyID,Buoy_Type,Buoy_Owner,Logistics,Hemisphere
2020-09-25T05:27:01Z,1601011621,2020,5,27,269.2271,269.2271,71.712,-150.417,1008.4,1.36,-999.0,yes,yes,no,300534060712230,BD2GI,AOML,SIQULIAQ,North
2020-09-25T06:00:00Z,1601013600,2020,6,0,269.25,269.25,71.713,-150.419,1008.4,1.38,-999.0,yes,yes,no,300534060712230,BD2GI,AOML,SIQULIAQ,North
2020-09-25T07:00:02Z,1601017203,2020,7,0,269.2917,269.2917,71.716,-150.424,1008.4,1.41,-999.0,yes,yes,no,300534060712230,BD2GI,AOML,SIQULIAQ,North
2020-09-25T07:59:57Z,1601020797,2020,8,0,269.3333,269.3333,71.719,-150.43,1008.4,1.39,-999.0,yes,yes,no,300534060712230,BD2GI,AOML,SIQULIAQ,North
2020-09-25T09:00:00Z,1601024400,2020,9,0,269.375,269.375,71.723,-150.435,1008.4,1.38,-999.0,yes,yes,no,300534060712230,BD2GI,AOML,SIQULIAQ,North
2020-09-25T10:00:02Z,1601028003,2020,10,0,269.4167,269.4167,71.728,-150.439,1008.4,1.37,-999.0,yes,yes,no,300534060712230,BD2GI,AOML,SIQULIAQ,North
2020-09-25T10:59:57Z,1601031597,2020,11,0,269.4583,269.4583,71.734,-150.439,1008.2,1.37,-999.0,yes,yes,no,300534060712230,BD2GI,AOML,SIQULIAQ,North
2020-09-25T12:00:00Z,1601035200,2020,12,0,269.5,269.5,71.74,-150.439,1008.2,1.37,-999.0,yes,yes,no,300534060712230,BD2GI,AOML,SIQULIAQ,North
2020-09-25T13:00:02Z,1601038803,2020,13,0,269.5417,269.5417,71.745,-150.437,1008.1,1.38,-999.0,yes,yes,no,300534060712230,BD2GI,AOML,SIQULIAQ,North
2020-09-25T13:59:57Z,1601042397,2020,14,0,269.5833,269.5833,71.749,-150.432,1007.9,1.38,-999.0,yes,yes,no,300534060712230,BD2GI,AOML,SIQULIAQ,North
2020-09-25T15:00:00Z,1601046000,2020,15,0,269.625,269.625,71.753,-150.432,1007.9,1.41,-999.0,yes,yes,no,300534060712230,BD2GI,AOML,SIQULIAQ,North
2020-09-25T16:00:02Z,1601049603,2020,16,0,269.6667,269.6667,71.756,-150.435,1008.0,1.45,-999.0,yes,yes,no,300534060712230,BD2GI,AOML,SIQULIAQ,North
2020-09-25T16:59:57Z,1601053197,2020,17,0,269.7083,269.7083,71.762,-150.441,1008.1,1.46,-999.0,yes,yes,no,300534060712230,BD2GI,AOML,SIQULIAQ,North
2020-09-25T18:00:00Z,1601056800,2020,18,0,269.75,269.75,71.768,-150.45,1008.4,1.47,-999.0,yes,yes,no,300534060712230,BD2GI,AOML,SIQULIAQ,North
2020-09-25T19:00:02Z,1601060403,2020,19,0,269.7917,269.7917,71.775,-150.462,1008.4,1.48,-999.0,yes,yes,no,300534060712230,BD2GI,AOML,SIQULIAQ,North
2020-09-25T19:59:57Z,1601063997,2020,20,0,269.8333,269.8333,71.783,-150.477,1008.6,1.48,-999.0,yes,yes,no,300534060712230,BD2GI,AOML,SIQULIAQ,North
2020-09-25T21:00:00Z,1601067600,2020,21,0,269.875,269.875,71.793,-150.493,1008.9,1.47,-999.0,yes,yes,no,300534060712230,BD2GI,AOML,SIQULIAQ,North
2020-09-25T22:00:02Z,1601071203,2020,22,0,269.9167,269.9167,71.802,-150.509,1009.1,1.45,-999.0,yes,yes,no,300534060712230,BD2GI,AOML,SIQULIAQ,North
2020-09-25T22:59:57Z,1601074797,2020,23,0,269.9583,269.9583,71.812,-150.521,1009.4,1.45,-999.0,yes,yes,no,300534060712230,BD2GI,AOML,SIQULIAQ,North
2020-09-26T00:00:00Z,1601078400,2020,0,0,270.0,270.0,71.824,-150.53,1009.5,1.46,-999.0,yes,yes,no,300534060712230,BD2GI,AOML,SIQULIAQ,North
2020-09-26T01:00:02Z,1601082003,2020,1,0,270.0417,270.0417,71.835,-150.538,1009.5,1.13,-999.0,yes,yes,no,300534060712230,BD2GI,AOML,SIQULIAQ,North
2020-09-26T01:59:57Z,1601085597,2020,2,0,270.0833,270.0833,71.847,-150.547,1009.9,1.03,-999.0,yes,yes,no,300534060712230,BD2GI,AOML,SIQULIAQ,North
2020-09-26T03:00:00Z,1601089200,2020,3,0,270.125,270.125,71.858,-150.567,1010.1,1.05,-999.0,yes,yes,no,300534060712230,BD2GI,AOML,SIQULIAQ,North
2020-09-26T04:00:02Z,1601092803,2020,4,0,270.1667,270.1667,71.867,-150.599,1010.3,1.28,-999.0,yes,yes,no,300534060712230,BD2GI,AOML,SIQULIAQ,North
2020-09-26T04:59:57Z,1601096397,2020,5,0,270.2083,270.2083,71.876,-150.637,1010.6,1.37,-999.0,yes,yes,no,300534060712230,BD2GI,AOML,SIQULIAQ,North
2020-09-26T06:00:00Z,1601100000,2020,6,0,270.25,270.25,71.885,-150.679,1010.8,1.37,-999.0,yes,yes,no,300534060712230,BD2GI,AOML,SIQULIAQ,North
2020-09-26T07:00:02Z,1601103603,2020,7,0,270.2917,270.2917,71.893,-150.72,1011.3,1.35,-999.0,yes,yes,no,300534060712230,BD2GI,AOML,SIQULIAQ,North
2020-09-26T07:59:57Z,1601107197,2020,8,0,270.3333,270.3333,71.901,-150.763,1011.5,1.34,-999.0,yes,yes,no,300534060712230,BD2GI,AOML,SIQULIAQ,North
2020-09-26T09:00:00Z,1601110800,2020,9,0,270.375,270.375,71.907,-150.809,1011.7,1.35,-999.0,yes,yes,no,300534060712230,BD2GI,AOML,SIQULIAQ,North
2020-09-26T10:00:02Z,1601114403,2020,10,0,270.4167,270.4167,71.912,-150.852,1011.9,1.34,-999.0,yes,yes,no,300534060712230,BD2GI,AOML,SIQULIAQ,North
2020-09-26T10:59:57Z,1601117997,2020,11,0,270.4583,270.4583,71.915,-150.889,1012.1,1.34,-999.0,yes,yes,no,300534060712230,BD2GI,AOML,SIQULIAQ,North
2020-09-26T12:00:00Z,1601121600,2020,12,0,270.5,270.5,71.916,-150.923,1012.1,1.34,-999.0,yes,yes,no,300534060712230,BD2GI,AOML,SIQULIAQ,North
2020-09-26T13:00:02Z,1601125203,2020,13,0,270.5417,270.5417,71.916,-150.956,1012.3,1.34,-999.0,yes,yes,no,300534060712230,BD2GI,AOML,SIQULIAQ,North
2020-09-26T13:59:57Z,1601128797,2020,14,0,270.5833,270.5833,71.916,-150.985,1012.3,1.33,-999.0,yes,yes,no,300534060712230,BD2GI,AOML,SIQULIAQ,North
2020-09-26T15:00:00Z,1601132400,2020,15,0,270.625,270.625,71.915,-151.011,1012.2,1.32,-999.0,yes,yes,no,300534060712230,BD2GI,AOML,SIQULIAQ,North
2020-09-26T16:00:02Z,1601136003,2020,16,0,270.6667,270.6667,71.912,-151.036,1012.4,1.3,-999.0,yes,yes,no,300534060712230,BD2GI,AOML,SIQULIAQ,North
2020-09-26T16:59:57Z,1601139597,2020,17,0,270.7083,270.7083,71.908,-151.064,1012.5,1.3,-999.0,yes,yes,no,300534060712230,BD2GI,AOML,SIQULIAQ,North
2020-09-26T18:00:00Z,1601143200,2020,18,0,270.75,270.75,71.904,-151.091,1012.8,1.32,-999.0,yes,yes,no,300534060712230,BD2GI,AOML,SIQULIAQ,North
2020-09-26T19:00:02Z,1601146803,2020,19,0,270.7917,270.7917,71.899,-151.121,1013.0,1.3,-999.0,yes,yes,no,300534060712230,BD2GI,AOML,SIQULIAQ,North
2020-09-26T19:59:57Z,1601150397,2020,20,0,270.8333,270.8333,71.894,-151.147,1013.4,1.29,-999.0,yes,yes,no,300534060712230,BD2GI,AOML,SIQULIAQ,North
2020-09-26T21:00:00Z,1601154000,2020,21,0,270.875,270.875,71.889,-151.169,1013.8,1.29,-999.0,yes,yes,no,300534060712230,BD2GI,AOML,SIQULIAQ,North
2020-09-26T22:00:02Z,1601157603,2020,22,0,270.9167,270.9167,71.884,-151.185,1013.9,1.29,-999.0,yes,yes,no,300534060712230,BD2GI,AOML,SIQULIAQ,North
2020-09-26T22:59:57Z,1601161197,2020,23,0,270.9583,270.9583,71.879,-151.197,1014.0,1.27,-999.0,yes,yes,no,300534060712230,BD2GI,AOML,SIQULIAQ,North
2020-09-27T00:00:00Z,1601164800,2020,0,0,271.0,271.0,71.875,-151.206,1014.0,1.27,-999.0,yes,yes,no,300534060712230,BD2GI,AOML,SIQULIAQ,North
2020-09-27T01:00:02Z,1601168403,2020,1,0,271.0417,271.0417,71.87,-151.21,1014.0,1.15,-999.0,yes,yes,no,300534060712230,BD2GI,AOML,SIQULIAQ,North
2020-09-27T01:59:57Z,1601171997,2020,2,0,271.0833,271.0833,71.864,-151.213,1014.3,1.18,-999.0,yes,yes,no,300534060712230,BD2GI,AOML,SIQULIAQ,North
2020-09-27T03:00:00Z,1601175600,2020,3,0,271.125,271.125,71.858,-151.213,1014.3,1.16,-999.0,yes,yes,no,300534060712230,BD2GI,AOML,SIQULIAQ,North
2020-09-27T04:00:02Z,1601179203,2020,4,0,271.1667,271.1667,71.851,-151.214,1014.4,1.17,-999.0,yes,yes,no,300534060712230,BD2GI,AOML,SIQULIAQ,North
2020-09-27T04:59:57Z,1601182797,2020,5,0,271.2083,271.2083,71.844,-151.217,1014.6,1.17,-999.0,yes,yes,no,300534060712230,BD2GI,AOML,SIQULIAQ,North
2020-09-27T06:00:00Z,1601186400,2020,6,0,271.25,271.25,71.838,-151.222,1014.5,1.17,-999.0,yes,yes,no,300534060712230,BD2GI,AOML,SIQULIAQ,North
2020-09-27T07:00:02Z,1601190003,2020,7,0,271.2917,271.2917,71.832,-151.23,1014.5,1.04,-999.0,yes,yes,no,300534060712230,BD2GI,AOML,SIQULIAQ,North
2020-09-27T07:59:57Z,1601193597,2020,8,0,271.3333,271.3333,71.827,-151.238,1014.4,1.0,-999.0,yes,yes,no,300534060712230,BD2GI,AOML,SIQULIAQ,North
2020-09-27T09:00:00Z,1601197200,2020,9,0,271.375,271.375,71.823,-151.245,1014.7,0.93,-999.0,yes,yes,no,300534060712230,BD2GI,AOML,SIQULIAQ,North
2020-09-27T10:00:02Z,1601200803,2020,10,0,271.4167,271.4167,71.82,-151.251,1014.6,0.9,-999.0,yes,yes,no,300534060712230,BD2GI,AOML,SIQULIAQ,North
2020-09-27T12:00:00Z,1601208000,2020,12,0,271.5,271.5,71.813,-151.253,1014.3,0.85,-999.0,yes,yes,no,300534060712230,BD2GI,AOML,SIQULIAQ,North
2020-09-27T13:00:02Z,1601211603,2020,13,0,271.5417,271.5417,71.809,-151.251,1014.0,0.84,-999.0,yes,yes,no,300534060712230,BD2GI,AOML,SIQULIAQ,North
2020-09-27T13:59:57Z,1601215197,2020,14,0,271.5833,271.5833,71.805,-151.25,1013.9,0.84,-999.0,yes,yes,no,300534060712230,BD2GI,AOML,SIQULIAQ,North
2020-09-27T15:00:00Z,1601218800,2020,15,0,271.625,271.625,71.799,-151.247,1013.6,0.82,-999.0,yes,yes,no,300534060712230,BD2GI,AOML,SIQULIAQ,North
2020-09-27T16:00:02Z,1601222403,2020,16,0,271.6667,271.6667,71.793,-151.248,1013.3,0.81,-999.0,yes,yes,no,300534060712230,BD2GI,AOML,SIQULIAQ,North
2020-09-27T16:59:57Z,1601225997,2020,17,0,271.7083,271.7083,71.786,-151.25,1012.9,0.81,-999.0,yes,yes,no,300534060712230,BD2GI,AOML,SIQULIAQ,North
2020-09-27T18:00:00Z,1601229600,2020,18,0,271.75,271.75,71.779,-151.254,1012.8,0.88,-999.0,yes,yes,no,300534060712230,BD2GI,AOML,SIQULIAQ,North
2020-09-27T19:00:02Z,1601233203,2020,19,0,271.7917,271.7917,71.772,-151.26,1012.4,0.94,-999.0,yes,yes,no,300534060712230,BD2GI,AOML,SIQULIAQ,North
2020-09-27T19:59:57Z,1601236797,2020,20,0,271.8333,271.8333,71.766,-151.269,1012.2,1.0,-999.0,yes,yes,no,300534060712230,BD2GI,AOML,SIQULIAQ,North
2020-09-27T21:00:00Z,1601240400,2020,21,0,271.875,271.875,71.761,-151.278,1011.8,1.07,-999.0,yes,yes,no,300534060712230,BD2GI,AOML,SIQULIAQ,North
2020-09-27T22:00:02Z,1601244003,2020,22,0,271.9167,271.9167,71.757,-151.283,1011.5,1.12,-999.0,yes,yes,no,300534060712230,BD2GI,AOML,SIQULIAQ,North
2020-09-27T22:59:57Z,1601247597,2020,23,0,271.9583,271.9583,71.753,-151.286,1010.9,1.17,-999.0,yes,yes,no,300534060712230,BD2GI,AOML,SIQULIAQ,North
2020-09-28T00:00:00Z,1601251200,2020,0,0,272.0,272.0,71.748,-151.284,1010.3,1.2,-999.0,yes,yes,no,300534060712230,BD2GI,AOML,SIQULIAQ,North
2020-09-28T01:00:02Z,1601254803,2020,1,0,272.0417,272.0417,71.743,-151.281,1009.7,1.21,-999.0,yes,yes,no,300534060712230,BD2GI,AOML,SIQULIAQ,North
2020-09-28T01:59:57Z,1601258397,2020,2,0,272.0833,272.0833,71.738,-151.278,1009.5,1.26,-999.0,yes,yes,no,300534060712230,BD2GI,AOML,SIQULIAQ,North
2020-09-28T03:00:00Z,1601262000,2020,3,0,272.125,272.125,71.732,-151.275,1009.1,1.27,-999.0,yes,yes,no,300534060712230,BD2GI,AOML,SIQULIAQ,North
2020-09-28T04:00:02Z,1601265603,2020,4,0,272.1667,272.1667,71.726,-151.274,1009.0,1.33,-999.0,yes,yes,no,300534060712230,BD2GI,AOML,SIQULIAQ,North
2020-09-28T04:59:57Z,1601269197,2020,5,0,272.2083,272.2083,71.72,-151.273,1009.0,1.62,-999.0,yes,yes,no,300534060712230,BD2GI,AOML,SIQULIAQ,North
2020-09-28T06:00:00Z,1601272800,2020,6,0,272.25,272.25,71.715,-151.272,1008.9,1.63,-999.0,yes,yes,no,300534060712230,BD2GI,AOML,SIQULIAQ,North
2020-09-28T07:00:02Z,1601276403,2020,7,0,272.2917,272.2917,71.711,-151.271,1008.9,1.5,-999.0,yes,yes,no,300534060712230,BD2GI,AOML,SIQULIAQ,North
2020-09-28T07:59:57Z,1601279997,2020,8,0,272.3333,272.3333,71.708,-151.269,1009.1,1.32,-999.0,yes,yes,no,300534060712230,BD2GI,AOML,SIQULIAQ,North
2020-09-28T09:00:00Z,1601283600,2020,9,0,272.375,272.375,71.706,-151.265,1009.1,1.35,-999.0,yes,yes,no,300534060712230,BD2GI,AOML,SIQULIAQ,North
2020-09-28T10:00:02Z,1601287203,2020,10,0,272.4167,272.4167,71.703,-151.258,1009.1,1.15,-999.0,yes,yes,no,300534060712230,BD2GI,AOML,SIQULIAQ,North
2020-09-28T10:59:57Z,1601290797,2020,11,0,272.4583,272.4583,71.699,-151.255,1009.0,1.2,-999.0,yes,yes,no,300534060712230,BD2GI,AOML,SIQULIAQ,North
2020-09-28T12:00:00Z,1601294400,2020,12,0,272.5,272.5,71.697,-151.251,1008.9,1.23,-999.0,yes,yes,no,300534060712230,BD2GI,AOML,SIQULIAQ,North
2020-09-28T13:00:02Z,1601298003,2020,13,0,272.5417,272.5417,71.695,-151.243,1009.1,1.29,-999.0,yes,yes,no,300534060712230,BD2GI,AOML,SIQULIAQ,North
2020-09-28T13:59:57Z,1601301597,2020,14,0,272.5833,272.5833,71.692,-151.238,1009.3,1.35,-999.0,yes,yes,no,300534060712230,BD2GI,AOML,SIQULIAQ,North
2020-09-28T15:00:00Z,1601305200,2020,15,0,272.625,272.625,71.688,-151.228,1009.4,1.17,-999.0,yes,yes,no,300534060712230,BD2GI,AOML,SIQULIAQ,North
2020-09-28T16:00:02Z,1601308803,2020,16,0,272.6667,272.6667,71.684,-151.223,1009.8,1.08,-999.0,yes,yes,no,300534060712230,BD2GI,AOML,SIQULIAQ,North
2020-09-28T16:59:57Z,1601312397,2020,17,0,272.7083,272.7083,71.681,-151.219,1009.9,0.96,-999.0,yes,yes,no,300534060712230,BD2GI,AOML,SIQULIAQ,North
2020-09-28T18:00:00Z,1601316000,2020,18,0,272.75,272.75,71.678,-151.216,1010.3,0.84,-999.0,yes,yes,no,300534060712230,BD2GI,AOML,SIQULIAQ,North
2020-09-28T19:00:02Z,1601319603,2020,19,0,272.7917,272.7917,71.676,-151.215,1010.4,0.91,-999.0,yes,yes,no,300534060712230,BD2GI,AOML,SIQULIAQ,North
2020-09-28T19:59:57Z,1601323197,2020,20,0,272.8333,272.8333,71.675,-151.213,1010.7,0.93,-999.0,yes,yes,no,300534060712230,BD2GI,AOML,SIQULIAQ,North
2020-09-28T21:00:00Z,1601326800,2020,21,0,272.875,272.875,71.674,-151.211,1011.3,0.98,-999.0,yes,yes,no,300534060712230,BD2GI,AOML,SIQULIAQ,North
2020-09-28T22:00:02Z,1601330403,2020,22,0,272.9167,272.9167,71.673,-151.208,1011.6,1.01,-999.0,yes,yes,no,300534060712230,BD2GI,AOML,SIQULIAQ,North
2020-09-28T22:59:57Z,1601333997,2020,23,0,272.9583,272.9583,71.672,-151.201,1011.8,1.04,-999.0,yes,yes,no,300534060712230,BD2GI,AOML,SIQULIAQ,North
2020-09-29T00:00:00Z,1601337600,2020,0,0,273.0,273.0,71.671,-151.192,1012.0,1.07,-999.0,yes,yes,no,300534060712230,BD2GI,AOML,SIQULIAQ,North
2020-09-29T01:00:02Z,1601341203,2020,1,0,273.0417,273.0417,71.67,-151.183,1012.2,1.09,-999.0,yes,yes,no,300534060712230,BD2GI,AOML,SIQULIAQ,North
2020-09-29T01:59:57Z,1601344797,2020,2,0,273.0833,273.0833,71.668,-151.175,1012.7,1.11,-999.0,yes,yes,no,300534060712230,BD2GI,AOML,SIQULIAQ,North
2020-09-29T03:00:00Z,1601348400,2020,3,0,273.125,273.125,71.666,-151.167,1013.1,1.17,-999.0,yes,yes,no,300534060712230,BD2GI,AOML,SIQULIAQ,North
2020-09-29T04:00:02Z,1601352003,2020,4,0,273.1667,273.1667,71.664,-151.161,1013.6,1.17,-999.0,yes,yes,no,300534060712230,BD2GI,AOML,SIQULIAQ,North
2020-09-29T04:59:57Z,1601355597,2020,5,0,273.2083,273.2083,71.663,-151.156,1014.0,1.17,-999.0,yes,yes,no,300534060712230,BD2GI,AOML,SIQULIAQ,North
2020-09-29T06:00:00Z,1601359200,2020,6,0,273.25,273.25,71.662,-151.15,1014.7,1.17,-999.0,yes,yes,no,300534060712230,BD2GI,AOML,SIQULIAQ,North
2020-09-29T07:00:02Z,1601362803,2020,7,0,273.2917,273.2917,71.661,-151.145,1015.5,1.16,-999.0,yes,yes,no,300534060712230,BD2GI,AOML,SIQULIAQ,North
2020-09-29T07:59:57Z,1601366397,2020,8,0,273.3333,273.3333,71.661,-151.138,1016.1,1.15,-999.0,yes,yes,no,300534060712230,BD2GI,AOML,SIQULIAQ,North
2020-09-29T09:00:00Z,1601370000,2020,9,0,273.375,273.375,71.661,-151.132,1016.6,1.11,-999.0,yes,yes,no,300534060712230,BD2GI,AOML,SIQULIAQ,North
2020-09-29T10:00:02Z,1601373603,2020,10,0,273.4167,273.4167,71.662,-151.124,1017.2,1.1,-999.0,yes,yes,no,300534060712230,BD2GI,AOML,SIQULIAQ,North
2020-09-29T10:59:57Z,1601377197,2020,11,0,273.4583,273.4583,71.662,-151.113,1017.6,1.1,-999.0,yes,yes,no,300534060712230,BD2GI,AOML,SIQULIAQ,North
2020-09-29T12:00:00Z,1601380800,2020,12,0,273.5,273.5,71.663,-151.103,1017.9,1.11,-999.0,yes,yes,no,300534060712230,BD2GI,AOML,SIQULIAQ,North
2020-09-29T13:00:02Z,1601384403,2020,13,0,273.5417,273.5417,71.664,-151.092,1018.4,1.1,-999.0,yes,yes,no,300534060712230,BD2GI,AOML,SIQULIAQ,North
2020-09-29T13:59:57Z,1601387997,2020,14,0,273.5833,273.5833,71.665,-151.081,1019.0,1.09,-999.0,yes,yes,no,300534060712230,BD2GI,AOML,SIQULIAQ,North
2020-09-29T15:00:00Z,1601391600,2020,15,0,273.625,273.625,71.666,-151.07,1019.3,1.07,-999.0,yes,yes,no,300534060712230,BD2GI,AOML,SIQULIAQ,North
2020-09-29T16:00:02Z,1601395203,2020,16,0,273.6667,273.6667,71.667,-151.059,1020.0,1.21,-999.0,yes,yes,no,300534060712230,BD2GI,AOML,SIQULIAQ,North
2020-09-29T16:59:57Z,1601398797,2020,17,0,273.7083,273.7083,71.669,-151.048,1020.6,1.0,-999.0,yes,yes,no,300534060712230,BD2GI,AOML,SIQULIAQ,North
2020-09-29T18:00:00Z,1601402400,2020,18,0,273.75,273.75,71.671,-151.038,1021.0,1.0,-999.0,yes,yes,no,300534060712230,BD2GI,AOML,SIQULIAQ,North
2020-09-29T19:00:02Z,1601406003,2020,19,0,273.7917,273.7917,71.673,-151.028,1021.5,1.02,-999.0,yes,yes,no,300534060712230,BD2GI,AOML,SIQULIAQ,North
2020-09-29T19:59:57Z,1601409597,2020,20,0,273.8333,273.8333,71.676,-151.017,1022.1,1.12,-999.0,yes,yes,no,300534060712230,BD2GI,AOML,SIQULIAQ,North
2020-09-29T21:00:00Z,1601413200,2020,21,0,273.875,273.875,71.678,-151.006,1022.7,1.03,-999.0,yes,yes,no,300534060712230,BD2GI,AOML,SIQULIAQ,North
2020-09-29T22:00:02Z,1601416803,2020,22,0,273.9167,273.9167,71.68,-150.994,1023.1,1.06,-999.0,yes,yes,no,300534060712230,BD2GI,AOML,SIQULIAQ,North
2020-09-29T22:59:57Z,1601420397,2020,23,0,273.9583,273.9583,71.684,-150.98,1023.3,1.06,-999.0,yes,yes,no,300534060712230,BD2GI,AOML,SIQULIAQ,North
2020-09-30T00:00:00Z,1601424000,2020,0,0,274.0,274.0,71.687,-150.967,1023.7,1.06,-999.0,yes,yes,no,300534060712230,BD2GI,AOML,SIQULIAQ,North
2020-09-30T01:00:02Z,1601427603,2020,1,0,274.0417,274.0417,71.691,-150.95,1023.9,1.04,-999.0,yes,yes,no,300534060712230,BD2GI,AOML,SIQULIAQ,North
2020-09-30T01:59:57Z,1601431197,2020,2,0,274.0833,274.0833,71.695,-150.934,1024.0,1.02,-999.0,yes,yes,no,300534060712230,BD2GI,AOML,SIQULIAQ,North
2020-09-30T03:00:00Z,1601434800,2020,3,0,274.125,274.125,71.699,-150.918,1024.1,0.99,-999.0,yes,yes,no,300534060712230,BD2GI,AOML,SIQULIAQ,North
2020-09-30T04:00:02Z,1601438403,2020,4,0,274.1667,274.1667,71.703,-150.903,1024.5,0.99,-999.0,yes,yes,no,300534060712230,BD2GI,AOML,SIQULIAQ,North
2020-09-30T04:59:57Z,1601441997,2020,5,0,274.2083,274.2083,71.708,-150.89,1024.7,1.01,-999.0,yes,yes,no,300534060712230,BD2GI,AOML,SIQULIAQ,North
2020-09-30T06:00:00Z,1601445600,2020,6,0,274.25,274.25,71.712,-150.878,1025.1,1.0,-999.0,yes,yes,no,300534060712230,BD2GI,AOML,SIQULIAQ,North
2020-09-30T07:00:02Z,1601449203,2020,7,0,274.2917,274.2917,71.716,-150.865,1025.4,0.97,-999.0,yes,yes,no,300534060712230,BD2GI,AOML,SIQULIAQ,North
2020-09-30T07:59:57Z,1601452797,2020,8,0,274.3333,274.3333,71.721,-150.852,1025.4,0.99,-999.0,yes,yes,no,300534060712230,BD2GI,AOML,SIQULIAQ,North
2020-09-30T09:00:00Z,1601456400,2020,9,0,274.375,274.375,71.725,-150.839,1025.1,0.99,-999.0,yes,yes,no,300534060712230,BD2GI,AOML,SIQULIAQ,North
2020-09-30T10:00:02Z,1601460003,2020,10,0,274.4167,274.4167,71.73,-150.827,1025.4,0.99,-999.0,yes,yes,no,300534060712230,BD2GI,AOML,SIQULIAQ,North
2020-09-30T10:59:57Z,1601463597,2020,11,0,274.4583,274.4583,71.735,-150.814,1025.4,1.03,-999.0,yes,yes,no,300534060712230,BD2GI,AOML,SIQULIAQ,North
2020-09-30T12:00:00Z,1601467200,2020,12,0,274.5,274.5,71.74,-150.801,1025.2,1.07,-999.0,yes,yes,no,300534060712230,BD2GI,AOML,SIQULIAQ,North
2020-09-30T13:00:02Z,1601470803,2020,13,0,274.5417,274.5417,71.745,-150.785,1024.6,1.05,-999.0,yes,yes,no,300534060712230,BD2GI,AOML,SIQULIAQ,North
2020-09-30T13:59:57Z,1601474397,2020,14,0,274.5833,274.5833,71.75,-150.771,1024.3,1.07,-999.0,yes,yes,no,300534060712230,BD2GI,AOML,SIQULIAQ,North
2020-09-30T15:00:00Z,1601478000,2020,15,0,274.625,274.625,71.755,-150.757,1024.1,1.12,-999.0,yes,yes,no,300534060712230,BD2GI,AOML,SIQULIAQ,North
2020-09-30T16:00:02Z,1601481603,2020,16,0,274.6667,274.6667,71.76,-150.743,1024.0,1.17,-999.0,yes,yes,no,300534060712230,BD2GI,AOML,SIQULIAQ,North
2020-09-30T16:59:57Z,1601485197,2020,17,0,274.7083,274.7083,71.766,-150.729,1024.0,1.26,-999.0,yes,yes,no,300534060712230,BD2GI,AOML,SIQULIAQ,North
2020-09-30T18:00:00Z,1601488800,2020,18,0,274.75,274.75,71.772,-150.714,1023.8,1.07,-999.0,yes,yes,no,300534060712230,BD2GI,AOML,SIQULIAQ,North
2020-09-30T19:00:02Z,1601492403,2020,19,0,274.7917,274.7917,71.778,-150.699,1023.2,0.98,-999.0,yes,yes,no,300534060712230,BD2GI,AOML,SIQULIAQ,North
2020-09-30T19:59:57Z,1601495997,2020,20,0,274.8333,274.8333,71.783,-150.686,1023.1,0.95,-999.0,yes,yes,no,300534060712230,BD2GI,AOML,SIQULIAQ,North
2020-09-30T21:00:00Z,1601499600,2020,21,0,274.875,274.875,71.79,-150.675,1022.4,0.98,-999.0,yes,yes,no,300534060712230,BD2GI,AOML,SIQULIAQ,North
2020-09-30T22:00:02Z,1601503203,2020,22,0,274.9167,274.9167,71.797,-150.668,1021.7,0.99,-999.0,yes,yes,no,300534060712230,BD2GI,AOML,SIQULIAQ,North
2020-09-30T22:59:57Z,1601506797,2020,23,0,274.9583,274.9583,71.804,-150.661,1020.7,0.96,-999.0,yes,yes,no,300534060712230,BD2GI,AOML,SIQULIAQ,North
2020-10-01T00:00:00Z,1601510400,2020,0,0,275.0,275.0,71.812,-150.656,1020.3,0.96,-999.0,yes,yes,no,300534060712230,BD2GI,AOML,SIQULIAQ,North
2020-10-01T01:00:02Z,1601514003,2020,1,0,275.0417,275.0417,71.82,-150.652,1019.9,0.95,-999.0,yes,yes,no,300534060712230,BD2GI,AOML,SIQULIAQ,North
2020-10-01T01:59:57Z,1601517597,2020,2,0,275.0833,275.0833,71.829,-150.65,1019.1,0.91,-999.0,yes,yes,no,300534060712230,BD2GI,AOML,SIQULIAQ,North
2020-10-01T03:00:00Z,1601521200,2020,3,0,275.125,275.125,71.838,-150.649,1018.7,0.87,-999.0,yes,yes,no,300534060712230,BD2GI,AOML,SIQULIAQ,North
2020-10-01T04:00:02Z,1601524803,2020,4,0,275.1667,275.1667,71.848,-150.65,1018.0,0.87,-999.0,yes,yes,no,300534060712230,BD2GI,AOML,SIQULIAQ,North
2020-10-01T04:59:57Z,1601528397,2020,5,0,275.2083,275.2083,71.858,-150.651,1017.2,0.87,-999.0,yes,yes,no,300534060712230,BD2GI,AOML,SIQULIAQ,North
2020-10-01T06:00:00Z,1601532000,2020,6,0,275.25,275.25,71.868,-150.656,1016.8,0.89,-999.0,yes,yes,no,300534060712230,BD2GI,AOML,SIQULIAQ,North
2020-10-01T07:00:02Z,1601535603,2020,7,0,275.2917,275.2917,71.878,-150.661,1016.4,0.92,-999.0,yes,yes,no,300534060712230,BD2GI,AOML,SIQULIAQ,North
2020-10-01T07:59:57Z,1601539197,2020,8,0,275.3333,275.3333,71.886,-150.671,1015.7,0.93,-999.0,yes,yes,no,300534060712230,BD2GI,AOML,SIQULIAQ,North
2020-10-01T09:00:00Z,1601542800,2020,9,0,275.375,275.375,71.894,-150.688,1015.5,0.96,-999.0,yes,yes,no,300534060712230,BD2GI,AOML,SIQULIAQ,North
2020-10-01T10:00:02Z,1601546403,2020,10,0,275.4167,275.4167,71.901,-150.708,1015.2,0.99,-999.0,yes,yes,no,300534060712230,BD2GI,AOML,SIQULIAQ,North
2020-10-01T12:00:00Z,1601553600,2020,12,0,275.5,275.5,71.909,-150.734,1014.7,1.0,-999.0,yes,yes,no,300534060712230,BD2GI,AOML,SIQULIAQ,North
2020-10-01T13:00:02Z,1601557203,2020,13,0,275.5417,275.5417,71.924,-150.793,1014.5,1.04,-999.0,yes,yes,no,300534060712230,BD2GI,AOML,SIQULIAQ,North
2020-10-01T13:59:57Z,1601560797,2020,14,0,275.5833,275.5833,71.93,-150.827,1014.3,1.06,-999.0,yes,yes,no,300534060712230,BD2GI,AOML,SIQULIAQ,North
2020-10-01T15:00:00Z,1601564400,2020,15,0,275.625,275.625,71.935,-150.861,1014.4,1.1,-999.0,yes,yes,no,300534060712230,BD2GI,AOML,SIQULIAQ,North
2020-10-01T16:00:02Z,1601568003,2020,16,0,275.6667,275.6667,71.94,-150.894,1014.3,1.11,-999.0,yes,yes,no,300534060712230,BD2GI,AOML,SIQULIAQ,North
2020-10-01T16:59:57Z,1601571597,2020,17,0,275.7083,275.7083,71.944,-150.928,1014.3,1.16,-999.0,yes,yes,no,300534060712230,BD2GI,AOML,SIQULIAQ,North
2020-10-01T18:00:00Z,1601575200,2020,18,0,275.75,275.75,71.947,-150.958,1014.6,1.18,-999.0,yes,yes,no,300534060712230,BD2GI,AOML,SIQULIAQ,North
2020-10-01T19:00:02Z,1601578803,2020,19,0,275.7917,275.7917,71.949,-150.991,1014.4,1.21,-999.0,yes,yes,no,300534060712230,BD2GI,AOML,SIQULIAQ,North
2020-10-01T19:59:57Z,1601582397,2020,20,0,275.8333,275.8333,71.952,-150.934,1014.6,1.23,-999.0,yes,yes,no,300534060712230,BD2GI,AOML,SIQULIAQ,North
2020-10-01T21:00:00Z,1601586000,2020,21,0,275.875,275.875,71.948,-151.048,1014.6,1.24,-999.0,yes,yes,no,300534060712230,BD2GI,AOML,SIQULIAQ,North
2020-10-01T22:00:02Z,1601589603,2020,22,0,275.9167,275.9167,71.947,-151.077,1014.6,1.27,-999.0,yes,yes,no,300534060712230,BD2GI,AOML,SIQULIAQ,North
2020-10-01T22:59:57Z,1601593197,2020,23,0,275.9583,275.9583,71.944,-151.109,1014.9,1.27,-999.0,yes,yes,no,300534060712230,BD2GI,AOML,SIQULIAQ,North
2020-10-02T00:00:00Z,1601596800,2020,0,0,276.0,276.0,71.942,-151.138,1015.0,1.27,-999.0,yes,yes,no,300534060712230,BD2GI,AOML,SIQULIAQ,North
2020-10-02T01:00:02Z,1601600403,2020,1,0,276.0417,276.0417,71.94,-151.165,1015.1,1.27,-999.0,yes,yes,no,300534060712230,BD2GI,AOML,SIQULIAQ,North